Theta_e
308 308 308 307 305 302 301 300 298 296 299 297 301 303 303 301 297 298 299 298 298 300 300 300 301 302 302 303 305 304 305 307 308 310 309 311 311 310 310 311 311 314 315 317 317 318 318 314 314 315 315 315 314 314
309 308 307 307 307 305 301 300 298 296 299 297 298 303 303 301 298 298 299 298 297 298 300 299 299 299 300 301 303 303 305 306 306 309 310 310 311 310 310 312 310 314 313 315 315 316 314 313 314 312 312 313 314 313
310 309 307 307 307 306 302 301 298 297 299 298 298 303 303 301 298 298 299 299 298 299 301 302 303 301 300 300 300 304 305 305 306 307 309 309 310 309 313 313 311 311 310 312 313 312 312 313 312 312 312 312 311 310
310 310 309 307 307 306 304 301 298 297 299 298 298 302 303 302 298 297 300 299 299 299 301 304 300 301 301 301 301 300 301 304 305 307 308 309 309 309 311 311 310 310 311 313 314 312 310 310 310 311 312 311 309 307
310 310 310 308 307 306 304 301 299 298 299 298 298 300 303 301 297 297 298 298 298 300 304 303 301 302 302 302 302 301 301 301 304 304 307 309 309 310 310 309 310 311 312 312 312 308 307 309 311 312 310 309 308 307
309 310 310 308 307 306 304 301 300 299 299 298 299 300 302 300 295 297 299 298 299 299 301 304 303 303 302 302 303 303 302 301 304 304 306 308 309 310 312 312 312 308 308 305 305 305 308 311 312 310 309 307 307 307
310 310 309 308 306 306 304 302 300 299 299 298 299 301 301 298 295 297 300 299 298 299 300 303 306 304 303 305 307 302 301 301 303 305 307 308 310 308 309 313 308 306 304 305 308 311 312 311 310 308 307 307 307 305
309 309 308 307 306 305 304 302 300 299 299 298 299 300 299 296 295 297 298 297 299 300 300 303 305 306 305 306 308 308 305 302 304 306 307 310 309 308 312 308 305 302 303 306 308 309 312 310 308 307 307 306 303 302
309 308 307 307 306 305 303 301 300 299 298 299 300 297 296 296 298 300 300 298 299 300 303 304 305 309 304 305 307 309 308 308 306 309 311 310 310 311 307 305 302 302 304 306 308 311 309 308 306 306 305 303 301 300
308 307 306 306 305 305 303 301 299 299 299 300 297 297 299 299 299 301 300 300 297 299 302 303 304 305 303 303 305 308 309 310 313 313 308 310 310 307 304 301 301 302 304 307 311 310 308 307 305 305 302 300 299 299
307 306 306 305 305 304 301 300 299 298 298 297 297 299 297 299 301 302 303 304 303 305 303 304 305 305 304 305 305 307 310 311 314 312 312 314 313 306 301 301 301 303 305 308 310 309 307 304 305 303 301 300 299 299
306 305 305 305 304 302 301 299 298 298 297 296 295 295 297 299 301 300 303 305 306 306 306 306 306 305 305 305 306 308 311 312 315 311 313 315 309 303 301 301 301 302 304 306 309 308 305 303 305 303 301 300 299 298
305 305 305 304 303 301 300 299 298 298 294 294 297 299 299 300 301 301 304 306 308 307 307 307 306 305 306 306 307 308 311 313 310 311 311 309 305 301 300 300 301 301 301 306 309 307 303 303 303 302 301 299 298 297
304 304 304 304 302 300 299 298 298 296 296 299 300 302 302 304 304 306 307 307 305 304 305 305 304 305 306 307 308 309 309 309 310 310 309 305 303 301 300 300 300 300 302 305 308 307 304 303 303 302 301 300 298 297
304 304 304 302 301 300 298 297 297 296 297 301 303 304 302 304 305 306 303 302 302 303 303 303 304 305 306 307 306 307 308 307 306 306 303 303 300 300 300 299 299 299 301 304 308 306 305 303 302 303 301 300 299 297
304 304 302 301 300 298 297 296 294 294 297 301 302 303 302 305 304 304 302 303 304 304 304 305 307 306 306 305 306 305 306 306 303 301 302 301 300 300 299 299 299 299 301 303 304 305 305 304 303 302 301 301 300 299
303 301 301 300 298 296 294 293 293 296 299 300 300 301 302 304 303 302 302 304 304 304 304 306 307 306 304 304 303 301 303 302 300 300 300 299 299 300 299 299 298 299 300 301 303 305 306 304 302 301 302 301 300 299
301 300 300 298 294 293 294 294 297 298 299 299 300 301 301 302 302 303 305 305 304 304 304 305 305 306 306 305 303 302 301 300 300 299 298 298 300 299 299 300 299 298 299 299 300 301 304 306 304 303 301 300 300 299
300 299 297 295 294 295 297 296 298 299 299 299 300 301 301 303 304 304 304 304 304 304 304 303 304 305 304 301 301 300 299 300 298 298 298 298 298 299 298 299 299 299 298 298 298 299 301 303 304 303 301 299 299 298
297 296 295 294 296 297 299 298 297 301 300 300 301 302 302 304 304 304 303 303 303 303 303 303 304 302 302 300 299 299 299 298 299 299 299 299 298 298 298 298 298 299 299 296 296 296 298 301 301 303 302 301 299 298
295 294 294 296 296 297 300 299 299 301 301 301 302 303 303 303 303 303 303 302 302 302 303 301 300 299 299 299 298 298 297 297 298 299 297 298 297 297 297 297 297 299 297 296 295 294 295 296 298 300 304 303 301 298
294 294 293 294 297 298 300 299 300 300 301 302 303 304 304 305 303 302 301 302 302 302 301 299 298 298 298 297 297 296 296 296 297 297 296 296 298 297 296 295 296 297 296 294 294 294 294 294 294 299 302 304 303 300
294 295 295 296 299 300 301 300 300 301 302 303 303 303 304 303 302 300 302 301 301 299 299 299 298 297 297 296 296 295 295 296 296 297 296 295 295 294 293 293 294 294 294 292 292 293 293 292 293 296 299 300 303 301
295 297 298 299 300 300 300 300 300 301 302 303 304 303 304 303 301 302 303 302 300 299 299 299 298 298 297 296 296 296 294 295 296 296 293 294 294 293 292 293 292 292 292 291 291 292 294 293 293 293 295 297 300 301
298 298 299 299 299 299 300 301 301 301 301 302 303 304 303 302 304 304 303 303 299 299 299 298 298 298 298 298 296 294 291 295 296 295 292 292 292 293 293 292 292 291 290 291 291 292 292 294 294 293 293 294 295 300
299 298 299 299 299 299 300 302 302 302 301 301 302 303 303 305 304 305 305 303 300 299 298 298 298 298 298 296 296 294 292 292 294 294 291 291 290 291 292 293 293 291 288 289 290 291 292 292 293 294 293 293 293 295
299 298 298 298 298 299 300 301 301 302 301 301 304 303 304 304 304 306 300 300 300 298 297 297 296 296 296 294 292 291 290 291 292 291 290 289 289 288 288 289 289 287 288 288 289 289 290 291 291 292 293 293 292 292
298 297 299 299 299 300 301 301 300 300 301 301 303 302 302 303 306 300 299 297 297 296 296 295 295 294 293 292 291 290 289 289 289 289 289 288 288 287 287 287 287 286 287 287 287 288 288 289 290 291 292 292 291 290
297 298 298 299 299 299 299 300 300 301 301 301 302 303 302 296 295 296 296 296 295 295 295 294 292 291 290 290 289 289 290 290 291 291 291 291 290 288 286 287 287 287 287 288 288 287 286 287 288 289 290 291 291 289
297 297 298 298 298 299 299 301 301 299 298 299 298 297 296 294 293 294 295 295 295 294 293 292 291 291 291 291 289 288 288 288 288 289 290 289 287 286 286 286 286 286 286 287 288 288 287 289 289 290 290 290 289 288
296 298 299 299 300 299 299 298 297 296 296 297 297 299 296 294 292 293 295 295 294 293 292 292 292 292 292 291 290 289 288 287 285 285 285 285 285 284 284 284 285 285 285 286 287 287 287 288 288 288 288 288 287 287
296 298 298 299 300 298 298 299 298 297 296 297 296 296 296 296 294 293 290 292 293 292 292 292 292 292 291 290 290 288 287 286 285 284 283 283 283 283 283 283 284 284 285 285 285 286 286 286 286 286 286 285 284 285
297 297 298 298 299 299 299 299 299 297 296 296 295 294 293 294 293 292 289 290 292 292 292 292 291 290 289 288 287 286 285 283 281 280 280 279 279 279 281 282 282 283 284 284 284 285 285 285 284 283 283 283 283 283
Wind_Speed
28 31 33 32 32 28 24 23 22 18 16 9 13 14 14 10 6 4 3 5 5 3 8 5 5 9 6 5 5 5 5 4 4 2 2 2 3 3 6 7 8 4 3 4 5 6 5 4 5 9 16 19 20 21
25 27 31 34 34 32 26 25 23 21 18 11 14 15 15 11 7 6 4 4 6 7 6 16 20 20 17 14 6 2 4 4 4 3 1 3 3 4 6 4 2 4 3 5 4 5 15 17 14 18 17 18 20 19
23 22 25 30 34 35 28 26 26 23 21 17 14 16 16 12 9 10 6 5 4 3 7 6 3 6 9 16 13 4 2 3 1 4 3 2 4 2 3 3 7 5 10 6 10 5 13 17 18 14 17 17 19 20
24 23 23 26 32 36 32 29 29 25 22 19 17 15 17 13 9 9 10 7 7 4 3 1 2 6 4 10 15 21 9 2 4 3 3 3 3 2 4 7 11 9 8 8 14 13 17 12 13 16 20 18 21 22
22 24 24 24 28 36 33 32 30 25 21 21 20 17 18 11 8 8 12 13 13 5 4 6 15 4 6 10 13 15 16 10 5 3 4 4 3 3 4 4 6 4 6 3 4 20 14 18 22 23 17 21 23 23
24 26 26 25 25 34 36 34 30 24 23 22 20 22 17 11 6 3 3 7 13 12 3 3 5 4 6 7 10 13 11 5 5 3 4 3 5 3 2 3 5 15 19 15 6 15 20 23 17 18 18 23 23 24
26 25 25 24 23 30 38 35 29 23 22 19 18 18 16 9 10 6 3 2 12 11 2 4 3 4 3 4 5 3 9 3 4 3 4 5 3 4 2 2 15 19 18 19 18 17 20 17 20 24 24 24 22 17
26 25 24 22 20 30 37 33 25 24 19 17 16 16 9 7 6 9 13 11 14 3 3 3 4 4 0 1 2 5 4 2 4 2 3 3 1 2 3 15 18 16 18 16 18 20 21 20 22 24 22 17 18 13
25 24 23 21 20 29 36 31 25 23 14 13 16 9 5 5 5 3 6 18 10 2 2 3 2 1 2 3 3 3 4 3 5 4 2 2 1 2 7 13 15 16 13 18 21 19 19 20 22 24 20 18 13 12
23 23 21 19 19 29 36 28 25 18 13 17 9 4 3 6 8 19 7 3 3 3 3 3 4 3 3 2 2 0 3 2 3 1 3 2 2 5 11 11 12 15 15 17 17 21 22 21 24 22 15 14 12 12
22 21 19 17 21 33 32 28 24 18 19 6 4 2 2 11 8 3 4 4 4 3 4 4 5 5 2 4 3 3 2 2 2 2 2 3 1 11 17 16 14 15 16 17 16 17 19 20 20 17 18 15 12 13
20 18 16 16 27 32 30 30 28 21 10 10 6 3 2 2 3 4 4 4 4 3 6 4 3 3 0 1 3 3 3 3 1 1 2 2 5 14 14 16 18 17 17 18 18 17 20 20 16 17 14 12 12 17
18 16 16 19 31 32 33 29 31 21 23 10 3 4 2 5 6 6 7 4 4 5 5 5 4 3 3 3 4 2 2 2 2 0 2 3 10 12 12 14 17 18 19 17 17 19 23 22 22 20 15 18 21 19
15 15 16 28 33 33 30 33 29 27 6 3 5 6 5 6 6 5 5 4 4 4 6 4 2 3 2 4 2 3 2 2 2 2 2 6 12 12 13 13 12 14 17 17 16 16 17 18 19 22 23 24 20 14
13 16 24 34 36 33 33 30 28 13 5 4 4 5 8 5 2 5 4 5 4 4 4 3 3 3 1 0 1 3 3 1 1 1 3 7 12 12 13 14 13 13 15 14 15 15 16 20 19 19 23 25 23 22
15 23 24 38 35 36 32 29 15 3 2 2 4 4 3 6 6 6 6 6 4 4 3 1 2 2 1 1 2 2 2 3 1 2 4 7 11 13 13 13 11 14 14 14 18 18 18 19 20 22 24 26 23 20
25 6 36 39 38 37 31 9 3 3 3 3 4 5 5 4 7 6 5 5 4 4 3 2 4 2 3 2 2 2 1 2 2 3 4 7 10 11 11 11 14 18 16 17 17 19 19 20 23 23 19 22 25 26
11 38 45 45 41 23 5 3 4 4 5 6 3 5 5 2 5 6 4 4 3 2 3 1 3 4 3 3 3 3 2 1 2 3 3 6 8 12 13 12 16 17 17 17 18 18 18 20 15 14 22 24 23 28
43 50 50 44 23 7 3 3 3 3 5 3 4 3 4 4 3 5 4 4 2 2 4 3 2 2 3 2 4 3 2 2 2 4 4 5 9 11 13 15 16 17 18 18 17 16 16 17 18 19 19 21 17 21
49 48 40 24 8 4 3 3 5 3 4 4 4 6 4 4 5 5 5 4 4 3 3 2 1 2 3 5 4 3 1 1 2 3 4 5 9 10 10 12 13 13 14 17 17 18 18 16 18 21 18 18 18 20
36 27 18 9 3 2 1 4 4 3 3 4 6 7 4 5 5 4 4 3 3 1 3 1 4 4 7 6 5 3 3 3 2 2 5 5 9 10 10 11 13 12 13 14 13 17 17 16 18 20 20 17 16 18
13 14 6 3 1 1 2 4 2 3 3 3 7 5 5 5 4 4 4 3 1 2 3 5 7 6 6 5 5 2 3 1 3 3 4 5 6 6 9 12 13 12 13 14 16 15 18 20 20 18 18 21 17 16
18 6 3 2 2 2 2 5 4 4 4 7 7 6 4 4 3 5 3 2 2 3 7 9 11 10 9 8 6 4 1 2 2 2 6 7 7 9 11 12 13 13 12 15 17 17 18 22 22 21 18 18 18 16
8 3 2 3 2 3 4 4 3 4 3 6 7 5 6 4 5 4 3 4 4 7 7 10 12 7 8 8 4 4 2 0 2 3 7 7 7 8 10 10 11 13 15 14 16 17 18 18 21 22 20 19 18 15
3 3 3 3 3 4 5 5 4 4 5 6 9 4 4 4 4 5 4 5 8 8 8 11 9 7 6 5 6 5 1 1 2 3 6 7 8 8 9 10 11 14 17 16 17 19 20 21 20 20 20 20 21 16
2 4 5 5 4 4 5 4 7 8 5 6 6 5 4 4 5 4 3 7 8 9 10 9 8 7 6 8 5 5 5 2 2 4 5 7 9 9 9 8 9 13 18 17 16 17 18 19 20 21 19 19 20 18
2 3 3 1 3 2 2 2 4 5 6 5 5 5 5 4 5 3 2 4 7 15 16 15 13 11 9 9 8 6 4 3 3 6 4 4 7 9 9 10 12 14 14 15 16 16 17 17 17 18 19 17 16 16
0 2 4 6 4 4 3 5 5 7 6 3 5 7 5 3 2 2 2 10 16 19 18 15 13 14 12 11 8 7 6 6 7 4 2 3 4 8 9 9 10 14 12 13 15 15 16 15 15 15 16 17 17 16
2 3 3 5 5 4 4 4 4 1 3 4 6 3 3 3 2 3 10 17 20 20 17 17 16 16 14 11 9 8 6 6 5 5 3 3 4 8 10 10 11 12 13 14 14 16 18 13 14 13 14 14 14 15
3 4 3 5 4 6 2 2 2 4 4 4 3 4 3 3 5 6 15 18 17 16 17 17 17 15 13 12 11 10 9 8 6 4 4 4 5 6 9 10 12 12 13 14 15 16 18 15 14 14 16 15 16 16
2 4 2 3 2 1 2 4 6 6 3 4 4 4 6 4 6 6 9 13 13 15 17 16 14 13 12 12 11 10 9 8 8 8 6 5 6 7 8 9 10 11 12 13 14 16 18 17 17 17 17 17 17 16
4 4 2 4 2 1 2 1 2 2 2 3 2 3 4 4 3 3 2 7 13 14 13 14 13 12 11 11 8 10 13 10 7 7 7 6 7 7 8 8 9 11 12 12 13 14 17 17 18 19 18 18 18 18
2 2 2 0 2 4 4 3 3 3 2 2 3 3 3 3 3 2 3 2 7 12 13 12 12 12 13 13 14 14 12 11 9 9 8 8 9 9 8 8 9 10 11 12 13 14 15 16 17 18 19 19 19 19
Wind_Direction
274 273 262 247 248 250 244 247 247 250 253 267 271 275 278 276 259 257 289 222 258 263 281 253 252 273 262 250 285 13 264 183 253 266 325 316 286 352 272 308 295 287 278 209 223 238 265 65 311 292 317 316 313 306
277 274 270 264 249 247 240 242 244 243 247 243 263 261 269 259 242 222 262 219 229 246 282 299 274 262 252 258 301 233 318 296 344 307 306 303 307 304 346 296 257 283 327 292 263 284 313 317 339 335 321 286 298 307
275 276 272 269 263 246 239 233 237 238 243 231 244 257 256 251 234 215 246 232 240 263 274 241 229 214 221 228 225 264 170 324 234 349 315 320 272 260 284 269 303 301 310 261 304 261 329 329 319 286 283 301 303 309
275 275 274 268 262 251 238 229 232 236 238 226 227 252 245 247 225 219 233 238 226 299 283 146 223 237 240 214 210 215 263 291 291 284 282 262 247 242 280 297 299 286 316 298 284 293 329 293 308 306 307 309 317 308
275 275 275 272 261 249 237 226 230 234 228 226 229 246 237 233 217 239 252 238 228 259 310 306 302 271 191 201 215 220 227 247 257 260 249 253 255 299 248 283 268 9 8 308 287 299 286 277 287 299 307 313 314 322
275 278 276 273 264 249 234 225 228 229 227 230 233 240 219 210 193 235 253 216 209 203 277 291 3 226 198 221 233 225 217 207 246 219 253 264 247 191 268 269 67 347 335 320 278 278 277 277 306 311 317 318 319 316
276 276 277 273 264 250 227 224 223 222 227 230 243 255 200 194 179 207 336 39 173 174 244 278 247 154 240 261 169 127 166 197 224 231 242 255 262 183 259 273 337 338 317 311 300 321 320 325 315 319 316 319 320 316
276 275 274 268 257 242 224 220 215 215 217 233 236 208 187 168 212 255 249 202 164 195 238 269 275 231 198 281 224 165 148 203 212 250 237 235 115 228 253 342 331 317 314 308 322 317 311 310 320 318 321 332 323 316
275 273 270 262 248 234 219 212 203 202 220 223 198 162 141 191 212 221 196 177 184 275 259 234 256 233 191 234 239 202 153 200 174 226 222 208 184 55 340 320 319 316 313 304 313 321 324 326 321 319 340 328 327 320
273 271 267 257 244 224 210 196 194 193 201 184 141 161 211 197 187 130 138 144 189 217 230 246 258 260 295 311 241 283 228 265 235 92 89 215 114 43 7 324 305 311 313 324 333 338 339 339 335 340 337 324 318 313
272 268 261 242 227 209 193 185 177 171 153 140 179 214 202 153 167 210 194 208 180 214 206 232 248 283 146 286 317 15 323 267 260 110 250 187 105 358 346 328 329 337 338 337 330 337 345 345 338 339 330 328 326 322
268 260 244 221 209 192 182 174 171 165 155 160 131 133 139 194 200 217 205 174 205 228 177 204 205 221 160 243 218 217 241 213 285 45 202 153 27 356 333 331 337 342 344 334 324 353 353 348 0 342 336 333 329 335
261 246 221 208 195 180 179 171 176 167 130 120 179 173 195 177 222 218 193 184 203 186 168 182 185 217 166 220 254 261 246 280 306 300 56 62 358 341 332 334 335 340 338 339 343 358 358 352 4 354 345 348 348 346
248 223 203 194 179 174 167 170 168 144 118 171 175 185 222 185 228 198 212 162 113 152 159 187 174 221 119 203 322 276 23 280 244 185 71 21 349 336 334 333 335 335 336 337 346 359 5 359 359 0 355 357 356 352
222 198 186 177 169 165 165 166 162 140 165 188 203 210 213 239 211 181 119 127 126 128 150 158 152 218 80 26 254 272 225 175 225 356 349 345 339 331 335 340 337 338 338 338 338 0 1 3 1 5 6 2 1 0
181 172 163 167 161 161 154 145 146 119 217 237 229 250 225 210 161 167 172 129 138 132 149 184 146 159 130 234 204 184 224 218 120 326 343 342 335 336 339 337 335 331 342 341 344 353 358 4 3 7 9 9 2 9
161 131 163 155 152 143 143 112 128 187 211 223 226 236 259 243 173 159 168 122 153 199 180 183 191 167 138 171 194 203 229 98 297 341 1 345 331 333 338 338 337 346 351 351 347 351 356 1 4 7 10 8 6 8
129 149 150 147 138 129 97 119 163 178 213 227 234 198 196 260 159 147 131 143 193 185 183 177 141 195 203 191 196 177 155 240 32 18 343 326 338 340 342 345 348 353 352 357 350 350 353 358 5 4 359 3 13 7
144 145 149 149 134 117 135 164 219 208 213 189 222 206 181 130 68 101 114 127 112 125 138 185 190 199 182 177 142 151 165 17 346 341 324 341 347 347 341 347 353 358 3 359 353 355 352 360 3 360 2 2 8 6
143 146 145 139 133 116 129 142 200 239 182 192 208 177 177 137 129 123 123 140 154 163 185 199 146 99 149 133 161 136 109 57 342 356 355 2 353 346 353 346 347 351 3 357 356 3 2 4 4 350 359 3 4 7
124 132 134 124 72 54 182 149 178 205 167 193 164 161 136 149 151 155 146 157 193 208 157 131 127 126 129 136 125 132 93 359 48 357 1 349 347 355 357 2 357 0 17 360 356 349 359 359 349 344 343 2 4 12
121 133 114 86 107 164 183 183 218 132 193 152 164 171 153 169 164 160 140 192 191 133 141 156 152 144 150 143 125 104 81 12 54 348 292 337 1 2 4 8 6 10 18 5 355 351 346 347 351 351 356 352 7 17
125 87 90 113 132 175 159 167 173 182 173 173 160 158 157 161 133 156 186 159 129 156 156 152 149 166 131 137 135 132 80 92 116 329 13 5 9 12 6 14 14 12 9 360 351 349 348 349 354 0 2 4 360 23
88 90 132 140 177 151 157 176 198 172 156 178 183 170 160 133 155 215 198 164 147 154 156 150 159 149 150 153 168 140 79 25 118 63 23 8 15 16 11 13 19 21 14 6 2 357 358 358 359 358 1 9 4 20
140 143 172 167 199 162 161 150 186 198 172 175 181 139 148 159 181 198 213 158 165 171 163 169 172 174 165 151 139 130 79 153 124 72 36 21 11 11 16 18 26 27 11 10 9 3 1 360 4 5 2 3 2 2
147 165 197 179 153 178 166 167 185 190 167 174 182 128 159 170 181 222 194 168 173 172 170 172 169 161 153 150 147 137 106 121 135 97 61 33 25 13 8 7 6 15 6 5 2 1 1 0 357 0 2 1 359 3
141 179 179 240 140 174 160 216 191 186 194 184 161 162 173 190 211 123 120 148 160 160 163 162 159 154 144 129 120 116 109 102 78 94 96 51 36 23 13 7 2 356 353 360 0 360 359 358 356 355 355 358 360 357
39 192 173 167 175 197 213 192 192 192 204 147 172 191 189 190 111 98 99 151 150 147 146 146 145 142 138 131 128 124 119 120 128 131 115 89 53 29 17 10 0 1 359 360 2 2 359 356 356 355 353 351 351 351
188 156 143 183 196 212 225 218 206 121 7 199 196 143 108 66 49 106 145 145 144 139 135 134 132 132 128 120 110 102 110 129 124 104 84 53 30 21 8 6 5 4 2 1 0 4 5 5 1 357 358 356 354 351
163 181 206 202 210 211 186 326 94 77 40 57 92 116 99 80 55 141 143 146 148 149 148 147 147 149 146 141 126 108 92 82 70 61 61 57 36 8 5 5 5 4 2 1 360 0 4 8 9 12 11 9 8 2
158 191 223 221 237 61 88 100 96 100 96 69 45 97 113 121 86 75 145 152 149 145 147 152 156 155 153 149 142 136 121 99 84 73 67 50 32 21 13 8 5 2 2 2 2 4 3 5 8 7 8 7 2 1
197 205 218 205 165 158 154 138 88 79 86 133 120 138 142 116 102 111 58 158 158 157 154 157 154 148 147 136 121 108 115 116 95 70 53 41 30 19 11 9 7 5 5 5 7 8 8 8 5 3 2 3 359 354
147 191 227 140 157 185 184 168 135 108 93 88 84 72 44 55 89 88 66 67 174 159 161 153 147 144 139 133 127 120 113 107 99 79 64 57 50 44 29 18 13 10 9 10 10 11 12 12 11 7 4 2 2 1